| time (UTC) | temp C | wind direction | speed KPH | gust KPH | rain 1hr cm | rain 24hr cm | rain mn cm | humidity % | barometer mb |
| 20260504130458 | 12 | 235 | 8.0 | 14.5 | 0.00 | 0.00 | 0.00 | 55 | 1011.9 |
| 20260504110345 | 10 | 326 | 6.4 | 11.3 | 0.00 | 0.00 | 0.00 | 61 | 1012.1 |
| 20260504100303 | 5 | 245 | 0.0 | 1.6 | 0.00 | 0.00 | 0.00 | 82 | 1012.1 |
| 20260504081656 | 5 | 26 | 0.0 | 0.0 | 0.00 | 0.00 | 0.00 | 87 | 1012.7 |
| 20260504081152 | 5 | 45 | 0.0 | 1.6 | 0.00 | 0.00 | 0.00 | 88 | 1012.3 |
| 20260504080649 | 5 | 80 | 3.2 | 4.8 | 0.00 | 0.00 | 0.00 | 88 | 1012.5 |
| 20260504080145 | 5 | 252 | 1.6 | 3.2 | 0.00 | 0.00 | 0.00 | 89 | 1012.6 |
| 20260504070114 | 5 | 159 | 1.6 | 1.6 | 0.00 | 0.00 | 0.00 | 88 | 1012.6 |
| 20260504050502 | 7 | 86 | 1.6 | 1.6 | 0.00 | 0.00 | 0.00 | 86 | 1013.2 |
| 20260504045959 | 7 | 147 | 1.6 | 3.2 | 0.00 | 0.00 | 0.00 | 86 | 1013.1 |
| 20260504045455 | 7 | 317 | 3.2 | 3.2 | 0.00 | 0.00 | 0.00 | 85 | 1013.6 |
| 20260504044951 | 7 | 329 | 0.0 | 1.6 | 0.00 | 0.00 | 0.00 | 85 | 1013.6 |
| 20260504044449 | 7 | 346 | 1.6 | 4.8 | 0.00 | 0.00 | 0.00 | 84 | 1013.9 |
| 20260504043946 | 7 | 342 | 0.0 | 4.8 | 0.00 | 0.00 | 0.00 | 83 | 1013.5 |
| 20260504043443 | 7 | 351 | 0.0 | 0.0 | 0.00 | 0.00 | 0.00 | 83 | 1013.5 |
| 20260504042940 | 7 | 350 | 1.6 | 1.6 | 0.00 | 0.00 | 0.00 | 82 | 1013.2 |
| 20260504042431 | 7 | 253 | 1.6 | 1.6 | 0.00 | 0.00 | 0.00 | 82 | 1013.3 |
| 20260504041927 | 7 | 289 | 0.0 | 1.6 | 0.00 | 0.00 | 0.00 | 82 | 1013.2 |
| 20260504041424 | 7 | 199 | 1.6 | 3.2 | 0.00 | 0.00 | 0.00 | 83 | 1013.3 |
| 20260504040920 | 7 | 208 | 1.6 | 3.2 | 0.00 | 0.00 | 0.00 | 83 | 1013.5 |
| 20260504040418 | 7 | 216 | 3.2 | 8.0 | 0.00 | 0.00 | 0.00 | 82 | 1013.9 |
| 20260504035908 | 7 | 241 | 0.0 | 1.6 | 0.00 | 0.00 | 0.00 | 82 | 1014.0 |
| 20260504035406 | 7 | 314 | 0.0 | 0.0 | 0.00 | 0.00 | 0.00 | 81 | 1014.0 |
| 20260504034902 | 7 | 304 | 0.0 | 1.6 | 0.00 | 0.00 | 0.00 | 81 | 1014.0 |
| 20260504034400 | 7 | 226 | 3.2 | 3.2 | 0.00 | 0.00 | 0.00 | 80 | 1014.1 |
| 20260504033856 | 7 | 300 | 1.6 | 1.6 | 0.00 | 0.00 | 0.00 | 78 | 1014.1 |
| 20260504033354 | 7 | 315 | 0.0 | 1.6 | 0.00 | 0.00 | 0.00 | 77 | 1014.0 |
| 20260504032851 | 7 | 303 | 4.8 | 4.8 | 0.00 | 0.00 | 0.00 | 75 | 1014.3 |
| 20260504032348 | 7 | 256 | 1.6 | 4.8 | 0.00 | 0.00 | 0.00 | 74 | 1014.3 |
| 20260504031845 | 7 | 320 | 0.0 | 1.6 | 0.00 | 0.00 | 0.00 | 73 | 1014.4 |
| 20260504031342 | 7 | 306 | 3.2 | 3.2 | 0.00 | 0.00 | 0.00 | 71 | 1014.4 |
| 20260504030838 | 7 | 323 | 0.0 | 1.6 | 0.00 | 0.00 | 0.00 | 70 | 1014.5 |
| 20260504030336 | 7 | 320 | 0.0 | 0.0 | 0.00 | 0.00 | 0.00 | 70 | 1014.2 |
| 20260504025832 | 7 | 300 | 1.6 | 1.6 | 0.00 | 0.00 | 0.00 | 70 | 1013.9 |
| 20260504025329 | 7 | 325 | 0.0 | 0.0 | 0.00 | 0.00 | 0.00 | 70 | 1013.7 |
| 20260504024825 | 7 | 244 | 3.2 | 3.2 | 0.00 | 0.00 | 0.00 | 69 | 1013.6 |
| 20260504024322 | 7 | 242 | 3.2 | 3.2 | 0.00 | 0.00 | 0.00 | 68 | 1013.6 |
| 20260504023819 | 7 | 230 | 1.6 | 1.6 | 0.00 | 0.00 | 0.00 | 69 | 1013.7 |
| 20260504023315 | 7 | 247 | 1.6 | 3.2 | 0.00 | 0.00 | 0.00 | 69 | 1013.6 |
| 20260504022811 | 7 | 262 | 1.6 | 1.6 | 0.00 | 0.00 | 0.00 | 68 | 1013.6 |
| 20260504022308 | 7 | 263 | 0.0 | 1.6 | 0.00 | 0.00 | 0.00 | 68 | 1013.7 |
| 20260504021804 | 7 | 226 | 1.6 | 3.2 | 0.00 | 0.00 | 0.00 | 68 | 1013.6 |
| 20260504021303 | 7 | 247 | 1.6 | 1.6 | 0.00 | 0.00 | 0.00 | 67 | 1013.7 |
| 20260504020759 | 7 | 235 | 1.6 | 3.2 | 0.00 | 0.00 | 0.00 | 66 | 1013.5 |
| 20260504020255 | 7 | 260 | 1.6 | 1.6 | 0.00 | 0.00 | 0.00 | 66 | 1013.7 |
| 20260504015751 | 7 | 262 | 1.6 | 1.6 | 0.00 | 0.00 | 0.00 | 66 | 1013.6 |
| 20260504015248 | 7 | 274 | 0.0 | 0.0 | 0.00 | 0.00 | 0.00 | 66 | 1013.6 |
| 20260504014744 | 7 | 291 | 1.6 | 1.6 | 0.00 | 0.00 | 0.00 | 66 | 1013.6 |
| 20260504014240 | 7 | 299 | 0.0 | 3.2 | 0.00 | 0.00 | 0.00 | 65 | 1013.4 |
| 20260504013738 | 7 | 308 | 3.2 | 8.0 | 0.00 | 0.00 | 0.00 | 65 | 1013.7 |
| 20260504013236 | 7 | 332 | 1.6 | 8.0 | 0.00 | 0.00 | 0.00 | 65 | 1013.5 |
| 20260504012732 | 7 | 301 | 1.6 | 3.2 | 0.00 | 0.00 | 0.00 | 66 | 1013.4 |
| 20260504012230 | 7 | 272 | 1.6 | 1.6 | 0.00 | 0.00 | 0.00 | 66 | 1013.5 |
| 20260504011727 | 7 | 228 | 0.0 | 0.0 | 0.00 | 0.00 | 0.00 | 65 | 1013.2 |
| 20260504011224 | 7 | 258 | 0.0 | 0.0 | 0.00 | 0.00 | 0.00 | 64 | 1013.6 |
| 20260504010720 | 7 | 293 | 0.0 | 0.0 | 0.00 | 0.00 | 0.00 | 63 | 1013.4 |
| 20260504010215 | 7 | 280 | 0.0 | 0.0 | 0.00 | 0.00 | 0.00 | 63 | 1013.6 |
| 20260504005712 | 7 | 317 | 0.0 | 1.6 | 0.00 | 0.00 | 0.00 | 62 | 1013.5 |
| 20260504005209 | 7 | 317 | 0.0 | 1.6 | 0.00 | 0.00 | 0.00 | 62 | 1013.6 |
| 20260504004707 | 7 | 310 | 0.0 | 0.0 | 0.00 | 0.00 | 0.00 | 62 | 1013.5 |
| 20260504004204 | 8 | 317 | 0.0 | 0.0 | 0.00 | 0.00 | 0.00 | 60 | 1013.6 |
| 20260504003701 | 8 | 275 | 1.6 | 3.2 | 0.00 | 0.00 | 0.00 | 60 | 1013.1 |
| 20260504003157 | 8 | 302 | 0.0 | 1.6 | 0.00 | 0.00 | 0.00 | 60 | 1013.3 |
| 20260504002654 | 8 | 268 | 3.2 | 4.8 | 0.00 | 0.00 | 0.00 | 59 | 1013.3 |
| 20260504002151 | 8 | 300 | 1.6 | 1.6 | 0.00 | 0.00 | 0.00 | 59 | 1012.9 |
| 20260504001649 | 8 | 317 | 0.0 | 1.6 | 0.00 | 0.00 | 0.00 | 58 | 1013.0 |
| 20260504001145 | 9 | 290 | 4.8 | 4.8 | 0.00 | 0.00 | 0.00 | 57 | 1012.8 |
| 20260504000642 | 9 | 302 | 1.6 | 3.2 | 0.00 | 0.00 | 0.00 | 57 | 1013.0 |
| 20260504000140 | 10 | 296 | 4.8 | 8.0 | 0.00 | 0.00 | 0.00 | 56 | 1012.8 |
| 20260503235638 | 10 | 329 | 3.2 | 9.7 | 0.00 | 0.00 | 0.00 | 54 | 1013.1 |
| 20260503235134 | 10 | 309 | 6.4 | 8.0 | 0.00 | 0.00 | 0.00 | 54 | 1012.9 |
| 20260503234632 | 10 | 308 | 8.0 | 11.3 | 0.00 | 0.00 | 0.00 | 52 | 1012.9 |
| 20260503234130 | 10 | 314 | 9.7 | 24.1 | 0.00 | 0.00 | 0.00 | 52 | 1012.8 |
| 20260503233627 | 10 | 266 | 20.9 | 29.0 | 0.00 | 0.00 | 0.00 | 51 | 1013.1 |
| 20260503233122 | 10 | 315 | 8.0 | 11.3 | 0.00 | 0.00 | 0.00 | 52 | 1013.0 |
| 20260503232619 | 10 | 289 | 4.8 | 12.9 | 0.00 | 0.00 | 0.00 | 50 | 1012.9 |
| 20260503232117 | 10 | 279 | 14.5 | 17.7 | 0.00 | 0.00 | 0.00 | 50 | 1013.0 |
| 20260503231615 | 10 | 288 | 14.5 | 17.7 | 0.00 | 0.00 | 0.00 | 49 | 1013.0 |
| 20260503231111 | 11 | 269 | 8.0 | 14.5 | 0.00 | 0.00 | 0.00 | 50 | 1012.7 |
| 20260503230609 | 11 | 327 | 12.9 | 17.7 | 0.00 | 0.00 | 0.00 | 49 | 1012.8 |
| 20260503230105 | 11 | 316 | 8.0 | 16.1 | 0.00 | 0.00 | 0.00 | 49 | 1012.7 |
| 20260503225602 | 11 | 287 | 14.5 | 17.7 | 0.00 | 0.00 | 0.00 | 48 | 1012.7 |
| 20260503225056 | 11 | 302 | 16.1 | 20.9 | 0.00 | 0.00 | 0.00 | 47 | 1012.7 |
| 20260503224555 | 11 | 330 | 12.9 | 17.7 | 0.00 | 0.00 | 0.00 | 47 | 1012.6 |
| 20260503224052 | 11 | 297 | 11.3 | 16.1 | 0.00 | 0.00 | 0.00 | 49 | 1012.5 |
| 20260503223550 | 11 | 279 | 12.9 | 16.1 | 0.00 | 0.00 | 0.00 | 48 | 1012.4 |
| 20260503223045 | 11 | 298 | 6.4 | 20.9 | 0.00 | 0.00 | 0.00 | 46 | 1012.4 |
| 20260503222544 | 11 | 290 | 9.7 | 12.9 | 0.00 | 0.00 | 0.00 | 48 | 1012.5 |
| 20260503222041 | 11 | 280 | 17.7 | 22.5 | 0.00 | 0.00 | 0.00 | 44 | 1012.6 |
| 20260503221539 | 11 | 305 | 20.9 | 27.4 | 0.00 | 0.00 | 0.00 | 44 | 1012.3 |
| 20260503221036 | 11 | 294 | 19.3 | 22.5 | 0.00 | 0.00 | 0.00 | 44 | 1012.4 |
| 20260503220532 | 11 | 297 | 19.3 | 22.5 | 0.00 | 0.00 | 0.00 | 45 | 1012.6 |
| 20260503220029 | 11 | 301 | 14.5 | 22.5 | 0.00 | 0.00 | 0.00 | 44 | 1012.3 |
| 20260503215527 | 11 | 291 | 14.5 | 20.9 | 0.00 | 0.00 | 0.00 | 43 | 1012.5 |
| 20260503215024 | 11 | 297 | 19.3 | 32.2 | 0.00 | 0.00 | 0.00 | 43 | 1012.6 |
| 20260503214522 | 11 | 322 | 14.5 | 24.1 | 0.00 | 0.00 | 0.00 | 43 | 1012.5 |
| 20260503214018 | 11 | 304 | 20.9 | 25.7 | 0.00 | 0.00 | 0.00 | 43 | 1012.5 |
| 20260503213517 | 11 | 320 | 19.3 | 22.5 | 0.00 | 0.00 | 0.00 | 42 | 1012.2 |
| 20260503213013 | 11 | 300 | 20.9 | 32.2 | 0.00 | 0.00 | 0.00 | 42 | 1012.4 |
| 20260503212510 | 11 | 274 | 24.1 | 33.8 | 0.00 | 0.00 | 0.00 | 40 | 1012.4 |
| 20260503212008 | 11 | 272 | 14.5 | 25.7 | 0.00 | 0.00 | 0.00 | 39 | 1012.3 |
| 20260503211504 | 12 | 304 | 14.5 | 27.4 | 0.00 | 0.00 | 0.00 | 38 | 1012.2 |
| 20260503211000 | 12 | 230 | 22.5 | 25.7 | 0.00 | 0.00 | 0.00 | 39 | 1012.2 |
| 20260503210457 | 12 | 306 | 14.5 | 27.4 | 0.00 | 0.00 | 0.00 | 37 | 1012.2 |
| 20260503205952 | 12 | 303 | 24.1 | 27.4 | 0.00 | 0.00 | 0.00 | 37 | 1012.1 |
| 20260503205449 | 12 | 329 | 11.3 | 20.9 | 0.00 | 0.00 | 0.00 | 36 | 1012.2 |
| 20260503204945 | 12 | 296 | 20.9 | 43.5 | 0.00 | 0.00 | 0.00 | 36 | 1012.1 |
| 20260503204442 | 12 | 319 | 16.1 | 27.4 | 0.00 | 0.00 | 0.00 | 36 | 1012.2 |
| 20260503203939 | 12 | 306 | 27.4 | 35.4 | 0.00 | 0.00 | 0.00 | 35 | 1012.3 |
| 20260503203437 | 12 | 250 | 14.5 | 35.4 | 0.00 | 0.00 | 0.00 | 36 | 1012.5 |
| 20260503202933 | 12 | 337 | 22.5 | 40.2 | 0.00 | 0.00 | 0.00 | 36 | 1012.5 |
| 20260503202432 | 12 | 289 | 19.3 | 37.0 | 0.00 | 0.00 | 0.00 | 36 | 1012.4 |
| 20260503201930 | 12 | 297 | 14.5 | 25.7 | 0.00 | 0.00 | 0.00 | 35 | 1012.5 |
| 20260503201427 | 11 | 331 | 27.4 | 33.8 | 0.00 | 0.00 | 0.00 | 35 | 1012.6 |
| 20260503200924 | 11 | 336 | 12.9 | 32.2 | 0.00 | 0.00 | 0.00 | 36 | 1012.7 |
| 20260503200420 | 12 | 342 | 11.3 | 37.0 | 0.00 | 0.00 | 0.00 | 36 | 1012.6 |
| 20260503195917 | 12 | 337 | 16.1 | 33.8 | 0.00 | 0.00 | 0.00 | 36 | 1012.7 |
| 20260503195415 | 11 | 344 | 24.1 | 33.8 | 0.00 | 0.00 | 0.00 | 37 | 1012.7 |
| 20260503194911 | 11 | 290 | 14.5 | 22.5 | 0.00 | 0.00 | 0.00 | 38 | 1012.7 |
| 20260503194408 | 11 | 282 | 14.5 | 27.4 | 0.00 | 0.00 | 0.00 | 40 | 1012.9 |
| 20260503193903 | 11 | 297 | 11.3 | 32.2 | 0.00 | 0.00 | 0.00 | 38 | 1012.9 |
| 20260503193359 | 11 | 288 | 25.7 | 32.2 | 0.00 | 0.00 | 0.00 | 37 | 1013.0 |
| 20260503192855 | 11 | 322 | 20.9 | 35.4 | 0.00 | 0.00 | 0.00 | 38 | 1012.9 |
| 20260503192350 | 11 | 294 | 14.5 | 25.7 | 0.00 | 0.00 | 0.00 | 37 | 1013.3 |
| 20260503191847 | 12 | 262 | 17.7 | 24.1 | 0.00 | 0.00 | 0.00 | 39 | 1013.2 |
| 20260503191345 | 11 | 337 | 11.3 | 29.0 | 0.00 | 0.00 | 0.00 | 40 | 1013.3 |
| 20260503190841 | 11 | 297 | 16.1 | 25.7 | 0.00 | 0.00 | 0.00 | 41 | 1013.0 |
| 20260503190338 | 11 | 289 | 19.3 | 33.8 | 0.00 | 0.00 | 0.00 | 40 | 1013.4 |
| 20260503185835 | 11 | 266 | 14.5 | 20.9 | 0.00 | 0.00 | 0.00 | 42 | 1013.5 |
| 20260503185331 | 11 | 277 | 22.5 | 25.7 | 0.00 | 0.00 | 0.00 | 40 | 1013.4 |
| 20260503184831 | 11 | 270 | 12.9 | 24.1 | 0.00 | 0.00 | 0.00 | 44 | 1013.4 |
| 20260503184327 | 11 | 300 | 20.9 | 25.7 | 0.00 | 0.00 | 0.00 | 44 | 1013.4 |
| 20260503183823 | 10 | 306 | 19.3 | 27.4 | 0.00 | 0.00 | 0.00 | 42 | 1013.5 |
| 20260503183321 | 10 | 290 | 19.3 | 35.4 | 0.00 | 0.00 | 0.00 | 41 | 1013.6 |
| 20260503182818 | 11 | 294 | 22.5 | 35.4 | 0.00 | 0.00 | 0.00 | 43 | 1013.9 |
| 20260503182317 | 10 | 288 | 14.5 | 20.9 | 0.00 | 0.00 | 0.00 | 42 | 1013.9 |
| 20260503181814 | 11 | 303 | 17.7 | 29.0 | 0.00 | 0.00 | 0.00 | 44 | 1013.7 |
| 20260503181311 | 11 | 331 | 19.3 | 24.1 | 0.00 | 0.00 | 0.00 | 43 | 1013.9 |
| 20260503180807 | 10 | 304 | 20.9 | 25.7 | 0.00 | 0.00 | 0.00 | 44 | 1014.1 |
| 20260503180306 | 10 | 321 | 14.5 | 25.7 | 0.00 | 0.00 | 0.00 | 46 | 1013.9 |
| 20260503175801 | 10 | 269 | 17.7 | 32.2 | 0.00 | 0.00 | 0.00 | 46 | 1013.9 |
| 20260503175300 | 10 | 342 | 14.5 | 25.7 | 0.00 | 0.00 | 0.00 | 45 | 1014.2 |
| 20260503174755 | 10 | 297 | 19.3 | 24.1 | 0.00 | 0.00 | 0.00 | 45 | 1014.0 |
| 20260503174253 | 10 | 294 | 8.0 | 12.9 | 0.00 | 0.00 | 0.00 | 49 | 1014.1 |
| 20260503173748 | 9 | 310 | 17.7 | 20.9 | 0.00 | 0.00 | 0.00 | 48 | 1013.9 |
| 20260503173244 | 8 | 292 | 9.7 | 11.3 | 0.00 | 0.00 | 0.00 | 49 | 1014.4 |
| 20260503172741 | 8 | 334 | 9.7 | 16.1 | 0.00 | 0.00 | 0.00 | 49 | 1014.3 |
| 20260503172238 | 8 | 296 | 6.4 | 25.7 | 0.00 | 0.00 | 0.00 | 49 | 1014.3 |
| 20260503171735 | 9 | 283 | 16.1 | 20.9 | 0.00 | 0.00 | 0.00 | 49 | 1014.5 |
| 20260503171232 | 9 | 307 | 8.0 | 16.1 | 0.00 | 0.00 | 0.00 | 49 | 1014.6 |
| 20260503170729 | 8 | 308 | 6.4 | 14.5 | 0.00 | 0.00 | 0.00 | 51 | 1014.4 |
| 20260503170226 | 8 | 281 | 17.7 | 24.1 | 0.00 | 0.00 | 0.00 | 49 | 1014.5 |
| 20260503160147 | 7 | 314 | 17.7 | 22.5 | 0.00 | 0.00 | 0.00 | 54 | 1015.1 |
| 20260503150617 | 6 | 345 | 9.7 | 14.5 | 0.00 | 0.00 | 0.00 | 57 | 1015.2 |
| 20260503150114 | 6 | 321 | 11.3 | 16.1 | 0.00 | 0.00 | 0.00 | 54 | 1015.2 |